Weather in Kopanovka

Russia / Astrakhan Oblast     47°27′38″N   46°48′58″E
temp.,
°C
wind,
m/s
gust,
m/s
humid.,
%
clouds,
%
prec.,
mm/h
press.,
hPa
HPBL,
m
1 august, sun
sun101:00+26se44258 0.0 101142
04:00+24s33465 0.0 101130
07:00+25se23480 0.0 101281
10:00+31se22300 0.0 1012733
13:00+34se54240 0.0 10111709
16:00+35ese43240 0.0 10101902
19:00+35e22265 0.0 10101093
22:00+30ese233324 0.0 101015
2 august, mon
mon201:00+29ssw473920 0.3 1011162
04:00+27ssw33454 0.6 101126
07:00+28s234271 0.0 101269
10:00+33s332592 0.0 1012492
13:00+36sse451749 0.0 10121445
16:00+38ese27135 0.0 10103406
19:00+37sse341599 0.0 1010212
22:00+32sse441879 0.0 101036
3 august, tue
tue301:00+28s44245 0.0 101044
04:00+26ssw22305 0.0 101111
07:00+29s11283 0.0 101215
10:00+35sse33165 0.0 1011626
13:00+39s46102 0.0 10113504
16:00+40sse45100 0.0 10093557
19:00+38sse34125 0.0 1009135
22:00+32s44150 0.0 100942
4 august, wed
wed401:00+29ssw46170 0.0 100975
04:00+28sw45210 0.0 101050
07:00+28ssw35255 0.0 1010102
10:00+36ssw451582 0.0 1010684
13:00+39wsw5513100 0.0 10093213
16:00+36wnw7821100 0.0 1010705
19:00+34nnw45237 0.1 1010276
22:00+30nnw45315 0.1 101171
5 august, thu
thu501:00+28n41040100 0.0 1012255
04:00+25nnw4652100 0.1 1012117
07:00+26nnw5752100 0.0 1013252
10:00+25nnw2356100 1.0 1014357
13:00+32n5537100 0.0 10141656
16:00+34n44260 0.0 10132881
19:00+32n65240 0.0 10132467
22:00+27n46289 0.0 101492